{"data":{"norad_id":62232,"epoch":"2026-05-24T22:09:05.756256Z","epoch_age_seconds":78929,"freshness":"FRESH","line1":"1 62232U 24231Q   26144.92298329  .00012788  00000+0  44305-3 0  9992","line2":"2 62232  53.1585 225.2795 0000817  68.7983 291.3105 15.30206453 83442","mean_motion":15.30206453,"eccentricity":8.17e-5,"inclination_deg":53.1585,"raan_deg":225.2795,"arg_perigee_deg":68.7983,"mean_anomaly_deg":291.3105,"bstar":0.00044305,"rev_number":8344,"period_min":94.104948856859,"perigee_km":474.63588470227,"apogee_km":475.75571928212,"semimajor_km":6853.3328019922,"source":"CELESTRAK","updated_at":"2026-05-25T13:38:19.616095Z"}}